TNO5555 SBBE-KBHM

Flight info

Callsign TNO5555
Flight time 6h 56m
Altitude 400000
Route ROGAP UG449 POS UL337 ARMUR L337 NEGON UL337 TILIG/N0471F400 UL337 NOSOX UA756 BODLO Y298 KNSLY Y350 ZQA BR65V ZFP BR1L JOLTS DCT KIZER DCT KYLEE DCT VUZ
Aircraft A332/H-SDE3GHIJ2J3J5M1RVWXY/LB2D1

Departure

Time 2026-05-04 14:32
Airport Val de Cans/Júlio Cezar Ribeiro International Airport (SBBE)

Arrival

Time 2026-05-04 21:29
Airport Birmingham-Shuttlesworth International Airport (KBHM)
Time Latitude Longitude Altitude Speed Heading
2026-05-04 14:28 -1.38581 -48.47672 52 ft 10 kts
2026-05-04 14:28 -1.38470 -48.47661 54 ft 13 kts
2026-05-04 14:28 -1.38406 -48.47654 51 ft 16 kts
2026-05-04 14:28 -1.38204 -48.47634 50 ft 23 kts
2026-05-04 14:29 -1.37935 -48.47597 46 ft 22 kts 29°
2026-05-04 14:29 -1.37645 -48.47326 47 ft 30 kts 45°
2026-05-04 14:30 -1.37503 -48.47185 51 ft 28 kts 45°
2026-05-04 14:30 -1.37371 -48.47052 55 ft 26 kts 45°
2026-05-04 14:30 -1.37208 -48.46908 56 ft 1 kts 133°
2026-05-04 14:31 -1.37215 -48.46909 55 ft 2 kts 178°
2026-05-04 14:31 -1.37356 -48.47029 51 ft 56 kts 221°
2026-05-04 14:32 -1.38458 -48.48132 110 ft 162 kts 222°
2026-05-04 14:32 -1.39311 -48.48965 536 ft 182 kts 220°
2026-05-04 14:32 -1.40257 -48.49891 1178 ft 197 kts 229°
2026-05-04 14:32 -1.41065 -48.51053 1647 ft 213 kts 243°
2026-05-04 14:33 -1.41504 -48.52534 1867 ft 234 kts 267°
2026-05-04 14:33 -1.41235 -48.54193 2100 ft 253 kts 296°
2026-05-04 14:33 -1.40104 -48.55566 2423 ft 262 kts 328°
2026-05-04 14:33 -1.38488 -48.56364 2934 ft 264 kts 341°
2026-05-04 14:34 -1.36726 -48.56917 3452 ft 267 kts 347°
2026-05-04 14:34 -1.34907 -48.57342 4009 ft 270 kts 348°
2026-05-04 14:34 -1.33154 -48.58064 4549 ft 277 kts 331°
2026-05-04 14:34 -1.31553 -48.59154 5115 ft 281 kts 324°
2026-05-04 14:35 -1.30051 -48.60426 5712 ft 284 kts 319°
2026-05-04 14:35 -1.28614 -48.61801 6349 ft 288 kts 317°
2026-05-04 14:35 -1.27198 -48.63228 6899 ft 291 kts 316°
2026-05-04 14:35 -1.25796 -48.64660 7462 ft 293 kts 316°
2026-05-04 14:36 -1.24362 -48.66115 8049 ft 295 kts 316°
2026-05-04 14:36 -1.22909 -48.67573 8636 ft 297 kts 317°
2026-05-04 14:36 -1.21436 -48.69032 9224 ft 300 kts 317°
2026-05-04 14:36 -1.19943 -48.70498 9809 ft 302 kts 317°
2026-05-04 14:37 -1.18427 -48.71981 10244 ft 310 kts 318°
2026-05-04 14:37 -1.16845 -48.73522 10444 ft 325 kts 317°
2026-05-04 14:37 -1.15185 -48.75137 10639 ft 341 kts 317°
2026-05-04 14:37 -1.13473 -48.76803 10820 ft 355 kts 317°
2026-05-04 14:38 -1.11669 -48.78562 10990 ft 369 kts 317°
2026-05-04 14:38 -1.09804 -48.80384 11242 ft 380 kts 317°
2026-05-04 14:38 -1.07902 -48.82245 11667 ft 384 kts 317°
2026-05-04 14:38 -1.05987 -48.84119 12142 ft 387 kts 317°
2026-05-04 14:39 -1.04053 -48.86011 12621 ft 390 kts 317°
2026-05-04 14:39 -1.02105 -48.87917 13106 ft 393 kts 317°
2026-05-04 14:39 -1.00141 -48.89837 13569 ft 396 kts 317°
2026-05-04 14:40 -0.96199 -48.93690 14432 ft 402 kts 317°
2026-05-04 14:40 -0.94199 -48.95645 14857 ft 404 kts 317°
2026-05-04 14:40 -0.92184 -48.97614 15269 ft 406 kts 317°
2026-05-04 14:40 -0.90161 -48.99590 15694 ft 408 kts 317°
2026-05-04 14:41 -0.88126 -49.01578 16100 ft 411 kts 317°
2026-05-04 14:41 -0.86074 -49.03583 16505 ft 413 kts 317°
2026-05-04 14:41 -0.81946 -49.07616 17295 ft 417 kts 317°
2026-05-04 14:42 -0.77799 -49.11667 18046 ft 423 kts 317°
2026-05-04 14:42 -0.75689 -49.13728 18399 ft 425 kts 317°
2026-05-04 14:42 -0.73573 -49.15796 18701 ft 428 kts 317°
2026-05-04 14:43 -0.71437 -49.17882 19003 ft 430 kts 317°
2026-05-04 14:43 -0.69291 -49.19979 19289 ft 432 kts 317°
2026-05-04 14:43 -0.67139 -49.22080 19603 ft 434 kts 317°
2026-05-04 14:43 -0.64972 -49.24198 19897 ft 437 kts 317°
2026-05-04 14:44 -0.62823 -49.26297 20175 ft 439 kts 317°
2026-05-04 14:44 -0.60635 -49.28434 20462 ft 441 kts 317°
2026-05-04 14:44 -0.58435 -49.30584 20743 ft 444 kts 316°
2026-05-04 14:44 -0.56219 -49.32748 20997 ft 447 kts 317°
2026-05-04 14:45 -0.53995 -49.34921 21242 ft 449 kts 317°
2026-05-04 14:45 -0.51756 -49.37108 21537 ft 451 kts 317°
2026-05-04 14:45 -0.49503 -49.39308 21813 ft 453 kts 317°
2026-05-04 14:45 -0.47274 -49.41486 22075 ft 455 kts 317°
2026-05-04 14:46 -0.45006 -49.43701 22338 ft 458 kts 317°
2026-05-04 14:46 -0.42727 -49.45927 22602 ft 459 kts 317°
2026-05-04 14:46 -0.40437 -49.48164 22866 ft 462 kts 317°
2026-05-04 14:46 -0.38135 -49.50413 23131 ft 464 kts 317°
2026-05-04 14:47 -0.35823 -49.52671 23365 ft 466 kts 316°
2026-05-04 14:47 -0.33496 -49.54944 23597 ft 469 kts 316°
2026-05-04 14:47 -0.31159 -49.57226 23812 ft 471 kts 316°
2026-05-04 14:47 -0.28817 -49.59514 24045 ft 472 kts 316°
2026-05-04 14:48 -0.26499 -49.61778 24275 ft 473 kts 316°
2026-05-04 14:48 -0.24143 -49.64080 24508 ft 474 kts 316°
2026-05-04 14:48 -0.21780 -49.66388 24750 ft 476 kts 316°
2026-05-04 14:48 -0.19410 -49.68703 24981 ft 477 kts 316°
2026-05-04 14:49 -0.17037 -49.71021 25213 ft 479 kts 316°
2026-05-04 14:49 -0.14650 -49.73353 25447 ft 480 kts 316°
2026-05-04 14:49 -0.12263 -49.75683 25678 ft 481 kts 316°
2026-05-04 14:49 -0.09863 -49.78027 25902 ft 483 kts 316°
2026-05-04 14:50 -0.07489 -49.80346 26137 ft 484 kts 316°
2026-05-04 14:50 -0.05078 -49.82701 26380 ft 486 kts 316°
2026-05-04 14:50 -0.02661 -49.85062 26604 ft 487 kts 316°
2026-05-04 14:50 -0.00237 -49.87430 26823 ft 488 kts 316°
2026-05-04 14:51 0.02201 -49.89811 27032 ft 491 kts 316°
2026-05-04 14:51 0.04644 -49.92197 27241 ft 492 kts 316°
2026-05-04 14:51 0.07095 -49.94591 27475 ft 494 kts 316°
2026-05-04 14:51 0.09555 -49.96993 27696 ft 495 kts 316°
2026-05-04 14:52 0.11988 -49.99370 27913 ft 497 kts 316°
2026-05-04 14:52 0.14465 -50.01788 28120 ft 498 kts 316°
2026-05-04 14:52 0.16950 -50.04215 28356 ft 500 kts 316°
2026-05-04 14:52 0.19435 -50.06642 28560 ft 501 kts 316°
2026-05-04 14:53 0.21937 -50.09085 28781 ft 503 kts 316°
2026-05-04 14:53 0.24439 -50.11529 28981 ft 504 kts 316°
2026-05-04 14:53 0.26949 -50.13981 29180 ft 506 kts 316°
2026-05-04 14:53 0.29464 -50.16438 29391 ft 507 kts 316°
2026-05-04 14:54 0.31955 -50.18872 29557 ft 509 kts 316°
2026-05-04 14:54 0.34497 -50.21355 29722 ft 511 kts 316°
2026-05-04 14:54 0.37043 -50.23842 29904 ft 512 kts 316°
2026-05-04 14:54 0.39590 -50.26329 30175 ft 512 kts 316°
2026-05-04 14:55 0.42127 -50.28807 30438 ft 510 kts 316°
2026-05-04 14:55 0.44662 -50.31283 30691 ft 509 kts 316°
2026-05-04 14:55 0.47192 -50.33754 30942 ft 508 kts 316°
2026-05-04 14:55 0.49713 -50.36217 31190 ft 507 kts 316°
2026-05-04 14:56 0.52232 -50.38677 31449 ft 506 kts 316°
2026-05-04 14:56 0.54711 -50.41099 31687 ft 505 kts 316°
2026-05-04 14:56 0.57218 -50.43548 31933 ft 504 kts 316°
2026-05-04 14:56 0.59722 -50.45995 32153 ft 503 kts 316°
2026-05-04 14:57 0.62228 -50.48442 32378 ft 503 kts 316°
2026-05-04 14:57 0.64724 -50.50881 32617 ft 502 kts 316°
2026-05-04 14:57 0.67220 -50.53319 32848 ft 501 kts 316°
2026-05-04 14:57 0.69711 -50.55753 33093 ft 500 kts 316°
2026-05-04 14:58 0.72200 -50.58184 33328 ft 500 kts 316°
2026-05-04 14:58 0.74680 -50.60606 33568 ft 499 kts 316°
2026-05-04 14:58 0.77128 -50.62998 33781 ft 498 kts 316°
2026-05-04 14:58 0.79589 -50.65403 33989 ft 498 kts 316°
2026-05-04 14:59 0.82065 -50.67822 34158 ft 497 kts 316°
2026-05-04 14:59 0.84536 -50.70237 34366 ft 496 kts 316°
2026-05-04 14:59 0.89449 -50.75036 34856 ft 491 kts 315°
2026-05-04 15:00 0.91876 -50.77407 35225 ft 486 kts 315°
2026-05-04 15:00 0.94284 -50.79760 35489 ft 483 kts 315°
2026-05-04 15:00 0.96654 -50.82076 35639 ft 483 kts 315°
2026-05-04 15:01 1.01465 -50.86777 35884 ft 484 kts 315°
2026-05-04 15:01 1.03866 -50.89123 36084 ft 482 kts 315°
2026-05-04 15:01 1.06262 -50.91464 36259 ft 481 kts 315°
2026-05-04 15:01 1.08653 -50.93801 36383 ft 481 kts 315°
2026-05-04 15:02 1.11037 -50.96131 36599 ft 478 kts 315°
2026-05-04 15:02 1.13380 -50.98420 36782 ft 477 kts 315°
2026-05-04 15:02 1.15752 -51.00738 36941 ft 476 kts 314°
2026-05-04 15:02 1.18112 -51.03045 37083 ft 475 kts 315°
2026-05-04 15:03 1.20475 -51.05353 37211 ft 475 kts 314°
2026-05-04 15:03 1.22845 -51.07671 37218 ft 477 kts 315°
2026-05-04 15:03 1.27595 -51.12314 37411 ft 477 kts 315°
2026-05-04 15:04 1.29962 -51.14626 37650 ft 474 kts 315°
2026-05-04 15:04 1.32317 -51.16928 37840 ft 472 kts 315°
2026-05-04 15:04 1.34632 -51.19191 37957 ft 472 kts 315°
2026-05-04 15:04 1.36977 -51.21483 38038 ft 472 kts 315°
2026-05-04 15:05 1.41676 -51.26076 38169 ft 473 kts 314°
2026-05-04 15:05 1.46380 -51.30676 38300 ft 474 kts 314°
2026-05-04 15:06 1.51096 -51.35286 38351 ft 476 kts 314°
2026-05-04 15:06 1.53442 -51.37580 38237 ft 480 kts 315°
2026-05-04 15:07 1.58214 -51.42246 38452 ft 479 kts 315°
2026-05-04 15:07 1.62971 -51.46897 38620 ft 478 kts 315°
2026-05-04 15:08 1.67731 -51.51552 38714 ft 479 kts 314°
2026-05-04 15:08 1.72466 -51.56182 38827 ft 479 kts 314°
2026-05-04 15:09 1.77238 -51.60851 38783 ft 483 kts 315°
2026-05-04 15:09 1.82032 -51.65540 39063 ft 478 kts 314°
2026-05-04 15:10 1.86759 -51.70162 39297 ft 475 kts 314°
2026-05-04 15:10 1.89094 -51.72446 39262 ft 477 kts 314°
2026-05-04 15:11 1.96221 -51.79420 39362 ft 478 kts 314°
2026-05-04 15:11 2.00965 -51.84061 39525 ft 476 kts 315°
2026-05-04 15:12 2.05699 -51.88694 39521 ft 478 kts 315°
2026-05-04 15:12 2.10422 -51.93315 39589 ft 478 kts 315°
2026-05-04 15:13 2.15188 -51.97980 39614 ft 479 kts 315°
2026-05-04 15:13 2.17568 -52.00309 39729 ft 477 kts 315°
2026-05-04 15:13 2.19935 -52.02626 39775 ft 477 kts 315°
2026-05-04 15:14 2.24682 -52.07273 39876 ft 476 kts 315°
2026-05-04 15:14 2.29386 -52.11878 39885 ft 478 kts 315°
2026-05-04 15:15 2.34137 -52.16529 39873 ft 478 kts 315°
2026-05-04 15:15 2.38888 -52.21181 39949 ft 478 kts 315°
2026-05-04 15:16 2.46000 -52.28146 39996 ft 477 kts 315°
2026-05-04 15:17 2.53061 -52.35061 39994 ft 475 kts 315°
2026-05-04 15:17 2.60148 -52.42003 40005 ft 475 kts 315°
2026-05-04 15:18 2.64868 -52.46629 40008 ft 475 kts 315°
2026-05-04 15:19 2.71923 -52.53541 40002 ft 475 kts 314°
2026-05-04 15:19 2.79011 -52.60488 39993 ft 476 kts 314°
2026-05-04 15:20 2.83740 -52.65123 39990 ft 476 kts 314°
2026-05-04 15:20 2.88441 -52.69731 39997 ft 476 kts 314°
2026-05-04 15:21 2.93172 -52.74370 39992 ft 476 kts 314°
2026-05-04 15:22 3.00273 -52.81333 39990 ft 478 kts 314°
2026-05-04 15:22 3.07363 -52.88287 39991 ft 477 kts 314°
2026-05-04 15:23 3.12098 -52.92931 39994 ft 476 kts 314°
2026-05-04 15:23 3.16818 -52.97561 40011 ft 475 kts 314°
2026-05-04 15:24 3.26216 -53.06784 40011 ft 474 kts 314°
2026-05-04 15:25 3.30921 -53.11401 40012 ft 474 kts 314°
2026-05-04 15:26 3.37981 -53.18331 39995 ft 474 kts 314°
2026-05-04 15:26 3.45003 -53.25226 39997 ft 473 kts 314°
2026-05-04 15:27 3.52053 -53.32149 40005 ft 473 kts 314°
2026-05-04 15:28 3.59107 -53.39079 40005 ft 474 kts 314°
2026-05-04 15:29 3.66122 -53.45984 40000 ft 473 kts 313°
2026-05-04 15:30 3.81904 -53.62721 40006 ft 473 kts 312°
2026-05-04 15:31 3.88676 -53.69909 40007 ft 473 kts 312°
2026-05-04 15:32 3.99937 -53.81859 40006 ft 473 kts 312°
2026-05-04 15:34 4.11244 -53.93866 40003 ft 474 kts 311°
2026-05-04 15:34 4.18004 -54.01047 40002 ft 474 kts 311°
2026-05-04 15:35 4.24803 -54.08270 40004 ft 475 kts 311°
2026-05-04 15:36 4.31601 -54.15495 40003 ft 475 kts 311°
2026-05-04 15:36 4.36090 -54.20268 40003 ft 473 kts 311°
2026-05-04 15:37 4.40602 -54.25066 39999 ft 472 kts 311°
2026-05-04 15:37 4.45115 -54.29865 40001 ft 474 kts 311°
2026-05-04 15:38 4.49639 -54.34678 40004 ft 475 kts 311°
2026-05-04 15:38 4.54151 -54.39478 40001 ft 477 kts 311°
2026-05-04 15:39 4.58697 -54.44315 40002 ft 476 kts 311°
2026-05-04 15:40 4.65507 -54.51564 40001 ft 476 kts 311°
2026-05-04 15:40 4.70052 -54.56403 40001 ft 478 kts 311°
2026-05-04 15:41 4.74582 -54.61227 40003 ft 479 kts 311°
2026-05-04 15:41 4.79162 -54.66105 40000 ft 481 kts 311°
2026-05-04 15:42 4.83740 -54.70981 39998 ft 480 kts 311°
2026-05-04 15:42 4.88319 -54.75859 40007 ft 480 kts 311°
2026-05-04 15:43 4.92860 -54.80699 40003 ft 480 kts 311°
2026-05-04 15:43 4.97437 -54.85578 40005 ft 480 kts 311°
2026-05-04 15:44 5.02012 -54.90456 40002 ft 479 kts 311°
2026-05-04 15:44 5.06570 -54.95317 40004 ft 478 kts 311°
2026-05-04 15:45 5.11117 -55.00167 40005 ft 477 kts 311°
2026-05-04 15:45 5.15632 -55.04985 40007 ft 477 kts 311°
2026-05-04 15:46 5.20176 -55.09833 40009 ft 476 kts 311°
2026-05-04 15:46 5.24711 -55.14674 40011 ft 476 kts 311°
2026-05-04 15:47 5.29246 -55.19516 40017 ft 476 kts 311°
2026-05-04 15:47 5.33784 -55.24362 40019 ft 475 kts 311°
2026-05-04 15:48 5.38270 -55.29153 40019 ft 473 kts 311°
2026-05-04 15:48 5.45022 -55.36367 40003 ft 472 kts 311°
2026-05-04 15:49 5.49516 -55.41170 40004 ft 472 kts 311°
2026-05-04 15:49 5.53978 -55.45940 40007 ft 472 kts 311°
2026-05-04 15:50 5.58469 -55.50742 40006 ft 472 kts 311°
2026-05-04 15:50 5.62964 -55.55549 40005 ft 472 kts 311°
2026-05-04 15:51 5.67444 -55.60342 40010 ft 470 kts 311°
2026-05-04 15:51 5.71914 -55.65125 40010 ft 469 kts 311°
2026-05-04 15:52 5.76340 -55.69862 40009 ft 468 kts 311°
2026-05-04 15:52 5.80793 -55.74629 40020 ft 468 kts 311°
2026-05-04 15:53 5.85247 -55.79399 40017 ft 468 kts 311°
2026-05-04 15:53 5.89700 -55.84168 40018 ft 467 kts 311°
2026-05-04 15:54 5.94109 -55.88892 40019 ft 467 kts 311°
2026-05-04 15:54 5.98551 -55.93652 40017 ft 467 kts 311°
2026-05-04 15:55 6.02988 -55.98409 40018 ft 467 kts 311°
2026-05-04 15:55 6.07430 -56.03170 40022 ft 467 kts 311°
2026-05-04 15:56 6.11837 -56.07897 40021 ft 467 kts 311°
2026-05-04 15:56 6.16272 -56.12655 40021 ft 467 kts 311°
2026-05-04 15:57 6.20711 -56.17418 40020 ft 467 kts 311°
2026-05-04 15:57 6.25116 -56.22146 40020 ft 466 kts 311°
2026-05-04 15:58 6.29551 -56.26907 40020 ft 466 kts 311°
2026-05-04 15:58 6.33985 -56.31668 40018 ft 466 kts 311°
2026-05-04 15:59 6.38411 -56.36423 40019 ft 465 kts 311°
2026-05-04 15:59 6.42801 -56.41139 40019 ft 465 kts 311°
2026-05-04 16:00 6.47218 -56.45886 40022 ft 465 kts 311°
2026-05-04 16:00 6.51632 -56.50632 40023 ft 465 kts 311°
2026-05-04 16:01 6.56051 -56.55383 40021 ft 465 kts 311°
2026-05-04 16:01 6.60466 -56.60132 40022 ft 465 kts 311°
2026-05-04 16:02 6.64851 -56.64850 40023 ft 465 kts 311°
2026-05-04 16:03 6.71471 -56.71975 40023 ft 465 kts 311°
2026-05-04 16:03 6.75888 -56.76732 40024 ft 465 kts 311°
2026-05-04 16:04 6.80300 -56.81483 40023 ft 465 kts 311°
2026-05-04 16:04 6.86888 -56.88581 40025 ft 465 kts 311°
2026-05-04 16:05 6.91303 -56.93339 40022 ft 465 kts 311°
2026-05-04 16:06 6.97895 -57.00447 40020 ft 465 kts 311°
2026-05-04 16:07 7.06720 -57.09965 40023 ft 465 kts 311°
2026-05-04 16:08 7.15508 -57.19452 40024 ft 464 kts 311°
2026-05-04 16:09 7.26520 -57.31346 40024 ft 464 kts 311°
2026-05-04 16:10 7.35301 -57.40837 40023 ft 464 kts 311°
2026-05-04 16:11 7.44107 -57.50361 40021 ft 464 kts 311°
2026-05-04 16:12 7.57270 -57.64609 40021 ft 464 kts 311°
2026-05-04 16:13 7.66064 -57.74135 40021 ft 464 kts 311°
2026-05-04 16:14 7.74828 -57.83635 40020 ft 463 kts 311°
2026-05-04 16:16 7.85748 -57.95481 40021 ft 462 kts 311°
2026-05-04 16:17 7.96686 -58.07356 40021 ft 462 kts 311°
2026-05-04 16:18 8.05409 -58.16833 40021 ft 462 kts 311°
2026-05-04 16:19 8.16330 -58.28708 40020 ft 461 kts 311°
2026-05-04 16:20 8.27204 -58.40542 40020 ft 461 kts 311°
2026-05-04 16:22 8.38076 -58.52385 40017 ft 461 kts 312°
2026-05-04 16:23 8.51126 -58.66612 40021 ft 459 kts 312°
2026-05-04 16:25 8.64119 -58.80794 40018 ft 459 kts 312°
2026-05-04 16:26 8.79270 -58.97350 40022 ft 459 kts 312°
2026-05-04 16:28 8.90077 -59.09172 40024 ft 458 kts 312°
2026-05-04 16:29 9.05162 -59.25693 40024 ft 457 kts 312°
2026-05-04 16:31 9.15916 -59.37484 40019 ft 457 kts 312°
2026-05-04 16:32 9.28807 -59.51633 40017 ft 457 kts 312°
2026-05-04 16:33 9.37415 -59.61090 40017 ft 456 kts 312°
2026-05-04 16:34 9.43868 -59.68185 40024 ft 457 kts 312°
2026-05-04 16:35 9.56742 -59.82351 40023 ft 456 kts 312°
2026-05-04 16:36 9.63189 -59.89451 40023 ft 456 kts 312°
2026-05-04 16:37 9.69606 -59.96523 40022 ft 456 kts 312°
2026-05-04 16:38 9.78200 -60.06002 40022 ft 457 kts 312°
2026-05-04 16:39 9.88911 -60.17825 40021 ft 456 kts 312°
2026-05-04 16:40 9.97486 -60.27300 40023 ft 456 kts 312°
2026-05-04 16:41 10.08173 -60.39118 40026 ft 456 kts 312°
2026-05-04 16:43 10.18884 -60.50976 40029 ft 456 kts 312°
2026-05-04 16:43 10.25282 -60.58066 40030 ft 456 kts 312°
2026-05-04 16:45 10.38090 -60.72272 40025 ft 456 kts 312°
2026-05-04 16:46 10.48788 -60.84151 40026 ft 456 kts 312°
2026-05-04 16:47 10.57321 -60.93636 40032 ft 456 kts 312°
2026-05-04 16:48 10.65727 -61.02988 40030 ft 455 kts 312°
2026-05-04 16:49 10.74237 -61.12465 40032 ft 455 kts 312°
2026-05-04 16:50 10.82779 -61.21985 40030 ft 455 kts 312°
2026-05-04 16:51 10.89152 -61.29093 40030 ft 455 kts 312°
2026-05-04 16:52 10.97681 -61.38615 40020 ft 455 kts 312°
2026-05-04 16:53 11.04086 -61.45771 40021 ft 456 kts 312°
2026-05-04 16:54 11.12586 -61.55274 40020 ft 455 kts 312°
2026-05-04 16:55 11.25346 -61.69558 40019 ft 455 kts 312°
2026-05-04 16:56 11.35997 -61.81497 40018 ft 456 kts 312°
2026-05-04 16:57 11.42367 -61.88644 40017 ft 456 kts 312°
2026-05-04 16:58 11.50892 -61.98216 40018 ft 456 kts 312°
2026-05-04 17:00 11.63641 -62.12549 40021 ft 456 kts 312°
2026-05-04 17:01 11.74278 -62.24526 40021 ft 456 kts 312°
2026-05-04 17:02 11.82767 -62.34093 40020 ft 456 kts 312°
2026-05-04 17:03 11.89149 -62.41291 40017 ft 456 kts 312°
2026-05-04 17:03 11.95498 -62.48459 40015 ft 456 kts 312°
2026-05-04 17:04 12.04002 -62.58068 40019 ft 456 kts 312°
2026-05-04 17:05 12.12477 -62.67654 40020 ft 456 kts 312°
2026-05-04 17:06 12.18854 -62.74872 40017 ft 456 kts 312°
2026-05-04 17:07 12.24514 -62.81285 40017 ft 456 kts 312°
2026-05-04 17:07 12.29483 -62.86917 40016 ft 456 kts 312°
2026-05-04 17:08 12.35830 -62.94118 40018 ft 456 kts 312°
2026-05-04 17:09 12.40078 -62.98940 40025 ft 456 kts 313°
2026-05-04 17:09 12.44333 -63.03772 40016 ft 457 kts 312°
2026-05-04 17:10 12.54955 -63.15848 40017 ft 458 kts 312°
2026-05-04 17:11 12.59212 -63.20691 40016 ft 458 kts 312°
2026-05-04 17:12 12.65570 -63.27930 40014 ft 458 kts 312°
2026-05-04 17:13 12.76203 -63.40050 40009 ft 457 kts 312°
2026-05-04 17:14 12.84699 -63.49746 40015 ft 460 kts 313°
2026-05-04 17:15 12.91105 -63.57064 40015 ft 460 kts 313°
2026-05-04 17:16 12.99610 -63.66790 40016 ft 459 kts 313°
2026-05-04 17:17 13.08139 -63.76552 40014 ft 459 kts 313°
2026-05-04 17:18 13.16670 -63.86329 40016 ft 460 kts 313°
2026-05-04 17:19 13.25165 -63.96076 40015 ft 460 kts 313°
2026-05-04 17:20 13.33688 -64.05865 40015 ft 460 kts 313°
2026-05-04 17:20 13.40050 -64.13180 40014 ft 460 kts 313°
2026-05-04 17:21 13.48572 -64.22988 40013 ft 460 kts 313°
2026-05-04 17:22 13.52806 -64.27866 40015 ft 461 kts 313°
2026-05-04 17:23 13.61346 -64.37711 40011 ft 462 kts 313°
2026-05-04 17:24 13.67753 -64.45105 40015 ft 462 kts 313°
2026-05-04 17:25 13.76261 -64.54935 40014 ft 461 kts 313°
2026-05-04 17:26 13.84788 -64.64797 40020 ft 462 kts 313°
2026-05-04 17:27 13.95422 -64.77115 40017 ft 462 kts 313°
2026-05-04 17:28 14.03238 -64.86179 40019 ft 463 kts 313°
2026-05-04 17:29 14.16722 -65.01841 40022 ft 462 kts 313°
2026-05-04 17:31 14.27350 -65.14207 40022 ft 462 kts 313°
2026-05-04 17:32 14.37295 -65.25794 40020 ft 463 kts 313°
2026-05-04 17:33 14.46529 -65.36571 40020 ft 463 kts 313°
2026-05-04 17:34 14.54321 -65.45675 40020 ft 462 kts 313°
2026-05-04 17:35 14.65661 -65.58943 40019 ft 463 kts 313°
2026-05-04 17:36 14.69197 -65.63084 40016 ft 463 kts 312°
2026-05-04 17:36 14.73455 -65.68075 40019 ft 463 kts 312°
2026-05-04 17:37 14.77722 -65.73079 40023 ft 464 kts 313°
2026-05-04 17:37 14.81981 -65.78078 40021 ft 463 kts 312°
2026-05-04 17:38 14.86230 -65.83067 40023 ft 461 kts 312°
2026-05-04 17:38 14.90445 -65.88021 40019 ft 462 kts 312°
2026-05-04 17:39 14.96829 -65.95527 40018 ft 464 kts 312°
2026-05-04 17:39 15.01083 -66.00533 40023 ft 462 kts 312°
2026-05-04 17:40 15.05320 -66.05524 40019 ft 462 kts 312°
2026-05-04 17:40 15.09535 -66.10490 40023 ft 463 kts 312°
2026-05-04 17:41 15.13791 -66.15509 40023 ft 465 kts 312°
2026-05-04 17:41 15.18049 -66.20534 40023 ft 464 kts 312°
2026-05-04 17:42 15.22259 -66.25506 40016 ft 461 kts 312°
2026-05-04 17:42 15.26488 -66.30503 40019 ft 462 kts 311°
2026-05-04 17:43 15.30725 -66.35512 40022 ft 463 kts 312°
2026-05-04 17:43 15.34968 -66.40533 40025 ft 463 kts 312°
2026-05-04 17:44 15.39169 -66.45508 40023 ft 461 kts 312°
2026-05-04 17:44 15.43387 -66.50504 40025 ft 462 kts 311°
2026-05-04 17:45 15.47621 -66.55524 40025 ft 464 kts 311°
2026-05-04 17:45 15.51873 -66.60569 40018 ft 463 kts 311°
2026-05-04 17:46 15.56039 -66.65585 40023 ft 460 kts 310°
2026-05-04 17:46 15.60098 -66.70701 40025 ft 460 kts 309°
2026-05-04 17:47 15.64147 -66.75854 40025 ft 461 kts 309°
2026-05-04 17:47 15.68186 -66.80981 40026 ft 463 kts 310°
2026-05-04 17:48 15.72265 -66.86145 40026 ft 462 kts 310°
2026-05-04 17:48 15.76329 -66.91287 40023 ft 459 kts 309°
2026-05-04 17:49 15.80362 -66.96393 40025 ft 458 kts 309°
2026-05-04 17:49 15.84376 -67.01481 40027 ft 459 kts 309°
2026-05-04 17:50 15.88431 -67.06624 40023 ft 461 kts 309°
2026-05-04 17:50 15.92481 -67.11765 40024 ft 459 kts 309°
2026-05-04 17:51 15.96518 -67.16892 40019 ft 457 kts 309°
2026-05-04 17:51 16.00513 -67.21970 40020 ft 458 kts 309°
2026-05-04 17:52 16.04545 -67.27098 40022 ft 458 kts 309°
2026-05-04 17:52 16.08586 -67.32241 40026 ft 459 kts 309°
2026-05-04 17:53 16.12585 -67.37334 40026 ft 457 kts 309°
2026-05-04 17:53 16.16605 -67.42458 40026 ft 457 kts 308°
2026-05-04 17:54 16.20625 -67.47585 40022 ft 458 kts 309°
2026-05-04 17:54 16.24649 -67.52721 40026 ft 458 kts 309°
2026-05-04 17:55 16.28678 -67.57867 40025 ft 458 kts 308°
2026-05-04 17:55 16.32660 -67.62957 40026 ft 456 kts 308°
2026-05-04 17:56 16.36664 -67.68079 40027 ft 456 kts 308°
2026-05-04 17:56 16.40668 -67.73204 40026 ft 456 kts 308°
2026-05-04 17:57 16.44640 -67.78292 40026 ft 456 kts 308°
2026-05-04 17:57 16.48639 -67.83419 40023 ft 456 kts 308°
2026-05-04 17:58 16.52636 -67.88547 40032 ft 455 kts 308°
2026-05-04 17:58 16.56618 -67.93658 40030 ft 454 kts 308°
2026-05-04 17:59 16.60570 -67.98735 40029 ft 454 kts 308°
2026-05-04 18:00 16.66532 -68.06401 40028 ft 454 kts 308°
2026-05-04 18:00 16.70501 -68.11510 40031 ft 453 kts 308°
2026-05-04 18:01 16.74471 -68.16623 40030 ft 453 kts 308°
2026-05-04 18:01 16.78410 -68.21700 40025 ft 453 kts 308°
2026-05-04 18:02 16.84335 -68.29344 40027 ft 451 kts 308°
2026-05-04 18:02 16.88280 -68.34438 40027 ft 451 kts 308°
2026-05-04 18:03 16.92194 -68.39496 40028 ft 451 kts 308°
2026-05-04 18:03 16.96137 -68.44596 40030 ft 451 kts 308°
2026-05-04 18:04 17.00077 -68.49695 40035 ft 451 kts 308°
2026-05-04 18:05 17.05954 -68.57307 40033 ft 451 kts 307°
2026-05-04 18:05 17.09887 -68.62407 40035 ft 450 kts 307°
2026-05-04 18:06 17.15786 -68.70062 40033 ft 450 kts 307°
2026-05-04 18:06 17.19688 -68.75131 40032 ft 450 kts 307°
2026-05-04 18:07 17.23613 -68.80233 40032 ft 450 kts 307°
2026-05-04 18:07 17.27537 -68.85337 40034 ft 450 kts 307°
2026-05-04 18:08 17.31458 -68.90442 40035 ft 450 kts 307°
2026-05-04 18:08 17.35376 -68.95547 40035 ft 449 kts 307°
2026-05-04 18:09 17.43172 -69.05717 40037 ft 449 kts 307°
2026-05-04 18:10 17.47086 -69.10828 40036 ft 449 kts 307°
2026-05-04 18:10 17.50995 -69.15936 40035 ft 449 kts 307°
2026-05-04 18:11 17.54875 -69.21011 40034 ft 449 kts 307°
2026-05-04 18:11 17.58782 -69.26123 40037 ft 449 kts 307°
2026-05-04 18:12 17.62682 -69.31232 40036 ft 449 kts 307°
2026-05-04 18:12 17.66581 -69.36344 40042 ft 449 kts 307°
2026-05-04 18:13 17.70453 -69.41423 40039 ft 449 kts 307°
2026-05-04 18:14 17.76293 -69.49092 40034 ft 448 kts 307°
2026-05-04 18:14 17.80185 -69.54208 40034 ft 449 kts 307°
2026-05-04 18:15 17.87941 -69.64414 40034 ft 449 kts 307°
2026-05-04 18:16 17.91833 -69.69542 40037 ft 449 kts 307°
2026-05-04 18:16 17.95721 -69.74668 40038 ft 449 kts 307°
2026-05-04 18:17 18.01526 -69.82330 40034 ft 449 kts 307°
2026-05-04 18:18 18.07349 -69.90023 40043 ft 448 kts 306°
2026-05-04 18:18 18.11222 -69.95146 40039 ft 448 kts 306°
2026-05-04 18:19 18.17027 -70.02832 40036 ft 448 kts 306°
2026-05-04 18:19 18.20870 -70.07926 40044 ft 447 kts 306°
2026-05-04 18:20 18.24738 -70.13056 40041 ft 447 kts 306°
2026-05-04 18:20 18.28603 -70.18187 40044 ft 447 kts 306°
2026-05-04 18:21 18.32467 -70.23319 40040 ft 447 kts 306°
2026-05-04 18:21 18.36304 -70.28421 40051 ft 447 kts 306°
2026-05-04 18:22 18.40167 -70.33561 40047 ft 448 kts 306°
2026-05-04 18:22 18.44024 -70.38698 40054 ft 446 kts 306°
2026-05-04 18:23 18.47860 -70.43811 40052 ft 445 kts 306°
2026-05-04 18:23 18.51668 -70.48890 40055 ft 445 kts 306°
2026-05-04 18:24 18.55500 -70.54004 40069 ft 445 kts 306°
2026-05-04 18:24 18.59328 -70.59118 40068 ft 444 kts 306°
2026-05-04 18:25 18.63145 -70.64223 40081 ft 443 kts 306°
2026-05-04 18:25 18.66939 -70.69300 40077 ft 444 kts 306°
2026-05-04 18:26 18.70754 -70.74407 40083 ft 443 kts 305°
2026-05-04 18:26 18.74565 -70.79515 40084 ft 443 kts 306°
2026-05-04 18:27 18.78375 -70.84626 40098 ft 444 kts 305°
2026-05-04 18:27 18.82158 -70.89704 40096 ft 442 kts 305°
2026-05-04 18:28 18.85948 -70.94797 40083 ft 441 kts 305°
2026-05-04 18:28 18.89734 -70.99889 40089 ft 441 kts 305°
2026-05-04 18:29 18.93520 -71.04984 40078 ft 441 kts 305°
2026-05-04 18:29 18.97307 -71.10089 40067 ft 441 kts 305°
2026-05-04 18:30 19.02956 -71.17705 40069 ft 441 kts 305°
2026-05-04 18:31 19.06736 -71.22804 40074 ft 441 kts 305°
2026-05-04 18:31 19.10489 -71.27874 40061 ft 441 kts 304°
2026-05-04 18:32 19.14265 -71.32980 40040 ft 440 kts 305°
2026-05-04 18:32 19.18035 -71.38078 40036 ft 439 kts 304°
2026-05-04 18:33 19.21788 -71.43158 40037 ft 437 kts 304°
2026-05-04 18:33 19.25531 -71.48231 40025 ft 437 kts 304°
2026-05-04 18:34 19.29244 -71.53269 40036 ft 437 kts 304°
2026-05-04 18:34 19.32982 -71.58344 40013 ft 437 kts 304°
2026-05-04 18:35 19.36713 -71.63411 40012 ft 436 kts 304°
2026-05-04 18:35 19.40438 -71.68477 40002 ft 436 kts 304°
2026-05-04 18:36 19.44137 -71.73511 39996 ft 436 kts 304°
2026-05-04 18:36 19.47857 -71.78578 39998 ft 436 kts 304°
2026-05-04 18:37 19.51576 -71.83649 40000 ft 436 kts 304°
2026-05-04 18:37 19.55295 -71.88722 39987 ft 436 kts 304°
2026-05-04 18:38 19.59022 -71.93813 39991 ft 438 kts 304°
2026-05-04 18:38 19.62723 -71.98869 39986 ft 435 kts 304°
2026-05-04 18:39 19.66423 -72.03927 39988 ft 433 kts 304°
2026-05-04 18:39 19.70113 -72.08979 39987 ft 433 kts 304°
2026-05-04 18:40 19.73804 -72.14038 39987 ft 433 kts 304°
2026-05-04 18:40 19.77466 -72.19060 39987 ft 433 kts 304°
2026-05-04 18:41 19.81150 -72.24117 39992 ft 433 kts 304°
2026-05-04 18:41 19.84835 -72.29179 39993 ft 433 kts 304°
2026-05-04 18:42 19.88522 -72.34246 39995 ft 433 kts 304°
2026-05-04 18:42 19.92181 -72.39280 39997 ft 433 kts 304°
2026-05-04 18:43 19.95857 -72.44342 40000 ft 432 kts 304°
2026-05-04 18:43 19.99530 -72.49405 39993 ft 432 kts 303°
2026-05-04 18:44 20.03197 -72.54463 39997 ft 432 kts 303°
2026-05-04 18:44 20.06840 -72.59494 39999 ft 432 kts 303°
2026-05-04 18:45 20.10685 -72.64424 40000 ft 436 kts 311°
2026-05-04 18:45 20.15198 -72.68762 39999 ft 438 kts 314°
2026-05-04 18:46 20.19843 -72.72966 39998 ft 439 kts 315°
2026-05-04 18:46 20.24485 -72.77124 39999 ft 439 kts 315°
2026-05-04 18:47 20.29145 -72.81318 39997 ft 438 kts 315°
2026-05-04 18:47 20.33774 -72.85503 39996 ft 435 kts 315°
2026-05-04 18:48 20.38382 -72.89678 39993 ft 435 kts 315°
2026-05-04 18:48 20.42988 -72.93857 39995 ft 435 kts 315°
2026-05-04 18:49 20.47556 -72.98004 39997 ft 434 kts 315°
2026-05-04 18:49 20.52163 -73.02187 39996 ft 434 kts 315°
2026-05-04 18:50 20.56758 -73.06364 39999 ft 434 kts 315°
2026-05-04 18:50 20.61360 -73.10549 40001 ft 434 kts 315°
2026-05-04 18:51 20.65924 -73.14705 40003 ft 434 kts 315°
2026-05-04 18:51 20.70520 -73.18892 40002 ft 434 kts 314°
2026-05-04 18:52 20.75109 -73.23077 39997 ft 434 kts 314°
2026-05-04 18:52 20.79701 -73.27268 39998 ft 434 kts 314°
2026-05-04 18:53 20.84292 -73.31462 40003 ft 434 kts 314°
2026-05-04 18:53 20.88851 -73.35630 39999 ft 434 kts 314°
2026-05-04 18:54 20.93415 -73.39805 39998 ft 434 kts 314°
2026-05-04 18:54 20.98002 -73.44005 40012 ft 434 kts 314°
2026-05-04 18:55 21.02570 -73.48190 39997 ft 431 kts 314°
2026-05-04 18:55 21.09361 -73.54421 40000 ft 430 kts 314°
2026-05-04 18:56 21.13907 -73.58597 40001 ft 430 kts 314°
2026-05-04 18:56 21.18450 -73.62773 40001 ft 430 kts 314°
2026-05-04 18:57 21.22991 -73.66950 40001 ft 430 kts 314°
2026-05-04 18:57 21.27500 -73.71101 40004 ft 430 kts 314°
2026-05-04 18:58 21.32035 -73.75280 40004 ft 430 kts 314°
2026-05-04 18:58 21.36596 -73.79490 40004 ft 434 kts 313°
2026-05-04 18:59 21.41193 -73.83735 40007 ft 438 kts 313°
2026-05-04 18:59 21.45796 -73.87988 40007 ft 441 kts 313°
2026-05-04 19:00 21.50467 -73.92306 40006 ft 445 kts 313°
2026-05-04 19:00 21.55171 -73.96659 40006 ft 447 kts 313°
2026-05-04 19:01 21.59887 -74.01024 40002 ft 447 kts 313°
2026-05-04 19:01 21.64600 -74.05392 40004 ft 447 kts 313°
2026-05-04 19:02 21.69276 -74.09730 40015 ft 446 kts 313°
2026-05-04 19:02 21.73968 -74.14087 40005 ft 445 kts 313°
2026-05-04 19:03 21.78653 -74.18443 40005 ft 445 kts 313°
2026-05-04 19:03 21.83340 -74.22804 40006 ft 445 kts 313°
2026-05-04 19:04 21.87993 -74.27138 40007 ft 445 kts 313°
2026-05-04 19:04 21.92682 -74.31508 40007 ft 445 kts 313°
2026-05-04 19:05 21.97361 -74.35874 40014 ft 445 kts 313°
2026-05-04 19:05 22.02041 -74.40243 40009 ft 445 kts 313°
2026-05-04 19:06 22.06669 -74.44567 40012 ft 443 kts 312°
2026-05-04 19:06 22.11319 -74.48918 40011 ft 443 kts 312°
2026-05-04 19:07 22.15971 -74.53274 39994 ft 443 kts 312°
2026-05-04 19:07 22.20614 -74.57627 40011 ft 442 kts 312°
2026-05-04 19:08 22.25229 -74.61956 40007 ft 442 kts 312°
2026-05-04 19:08 22.29877 -74.66320 39994 ft 443 kts 312°
2026-05-04 19:09 22.34519 -74.70682 39994 ft 442 kts 312°
2026-05-04 19:09 22.39159 -74.75046 40007 ft 441 kts 312°
2026-05-04 19:10 22.43754 -74.79371 40003 ft 441 kts 312°
2026-05-04 19:10 22.48374 -74.83726 40003 ft 441 kts 312°
2026-05-04 19:11 22.52996 -74.88085 40009 ft 441 kts 312°
2026-05-04 19:11 22.57613 -74.92445 40003 ft 441 kts 312°
2026-05-04 19:12 22.64510 -74.98964 40003 ft 441 kts 312°
2026-05-04 19:13 22.69127 -75.03332 40004 ft 441 kts 312°
2026-05-04 19:13 22.73739 -75.07699 40017 ft 438 kts 312°
2026-05-04 19:14 22.78293 -75.12015 40007 ft 438 kts 312°
2026-05-04 19:14 22.82875 -75.16365 40005 ft 438 kts 312°
2026-05-04 19:15 22.87455 -75.20716 40008 ft 438 kts 312°
2026-05-04 19:15 22.92033 -75.25068 40007 ft 438 kts 312°
2026-05-04 19:16 22.96580 -75.29395 40006 ft 438 kts 312°
2026-05-04 19:16 23.01162 -75.33759 40009 ft 438 kts 312°
2026-05-04 19:17 23.05738 -75.38121 40004 ft 438 kts 312°
2026-05-04 19:17 23.10305 -75.42478 40021 ft 437 kts 311°
2026-05-04 19:18 23.14835 -75.46805 40005 ft 436 kts 311°
2026-05-04 19:18 23.19393 -75.51163 40007 ft 436 kts 311°
2026-05-04 19:19 23.23946 -75.55521 40009 ft 436 kts 311°
2026-05-04 19:19 23.28503 -75.59885 40007 ft 436 kts 311°
2026-05-04 19:20 23.33028 -75.64224 40007 ft 436 kts 311°
2026-05-04 19:20 23.37579 -75.68590 40007 ft 436 kts 311°
2026-05-04 19:21 23.42129 -75.72961 40024 ft 436 kts 311°
2026-05-04 19:21 23.46678 -75.77335 40004 ft 436 kts 311°
2026-05-04 19:22 23.51189 -75.81676 40003 ft 436 kts 311°
2026-05-04 19:22 23.55732 -75.86052 40004 ft 436 kts 311°
2026-05-04 19:23 23.60272 -75.90430 40003 ft 436 kts 311°
2026-05-04 19:23 23.64812 -75.94812 40003 ft 436 kts 311°
2026-05-04 19:24 23.69318 -75.99167 40003 ft 436 kts 311°
2026-05-04 19:24 23.73854 -76.03553 40004 ft 436 kts 311°
2026-05-04 19:25 23.78400 -76.07955 40006 ft 437 kts 310°
2026-05-04 19:25 23.82951 -76.12364 40004 ft 437 kts 310°
2026-05-04 19:26 23.87473 -76.16748 40005 ft 437 kts 310°
2026-05-04 19:26 23.92016 -76.21159 40001 ft 437 kts 310°
2026-05-04 19:27 23.96560 -76.25575 40002 ft 437 kts 310°
2026-05-04 19:27 24.01104 -76.29995 40001 ft 437 kts 310°
2026-05-04 19:28 24.05614 -76.34386 39999 ft 437 kts 310°
2026-05-04 19:28 24.10151 -76.38808 39998 ft 437 kts 310°
2026-05-04 19:29 24.14689 -76.43236 39997 ft 437 kts 310°
2026-05-04 19:29 24.19229 -76.47669 39999 ft 437 kts 310°
2026-05-04 19:30 24.23734 -76.52073 40000 ft 438 kts 310°
2026-05-04 19:30 24.28278 -76.56520 39999 ft 438 kts 310°
2026-05-04 19:31 24.32816 -76.60965 39997 ft 438 kts 310°
2026-05-04 19:31 24.37352 -76.65412 39995 ft 438 kts 310°
2026-05-04 19:32 24.41858 -76.69833 40014 ft 437 kts 310°
2026-05-04 19:32 24.46382 -76.74276 39996 ft 436 kts 310°
2026-05-04 19:33 24.50896 -76.78716 39993 ft 436 kts 310°
2026-05-04 19:33 24.55412 -76.83162 39994 ft 436 kts 310°
2026-05-04 19:34 24.59893 -76.87578 39998 ft 436 kts 310°
2026-05-04 19:34 24.64403 -76.92027 39995 ft 436 kts 310°
2026-05-04 19:35 24.68908 -76.96475 39998 ft 435 kts 310°
2026-05-04 19:35 24.73412 -77.00927 39993 ft 435 kts 310°
2026-05-04 19:36 24.77919 -77.05386 39992 ft 435 kts 309°
2026-05-04 19:36 24.82380 -77.09804 39986 ft 435 kts 309°
2026-05-04 19:37 24.86876 -77.14262 39995 ft 435 kts 309°
2026-05-04 19:37 24.91367 -77.18719 40004 ft 435 kts 309°
2026-05-04 19:38 24.95859 -77.23182 40010 ft 434 kts 309°
2026-05-04 19:38 25.00315 -77.27612 40018 ft 434 kts 309°
2026-05-04 19:39 25.04797 -77.32074 40026 ft 434 kts 309°
2026-05-04 19:39 25.09275 -77.36537 40031 ft 434 kts 309°
2026-05-04 19:40 25.13732 -77.40985 40034 ft 435 kts 309°
2026-05-04 19:40 25.18218 -77.45463 40027 ft 435 kts 309°
2026-05-04 19:41 25.22702 -77.49946 40018 ft 435 kts 309°
2026-05-04 19:41 25.27185 -77.54431 40003 ft 435 kts 309°
2026-05-04 19:42 25.31668 -77.58921 39984 ft 435 kts 309°
2026-05-04 19:42 25.36114 -77.63379 39980 ft 434 kts 309°
2026-05-04 19:43 25.40588 -77.67870 39985 ft 434 kts 309°
2026-05-04 19:43 25.45066 -77.72371 39988 ft 436 kts 309°
2026-05-04 19:44 25.49524 -77.76857 39982 ft 436 kts 309°
2026-05-04 19:44 25.54018 -77.81381 39983 ft 436 kts 309°
2026-05-04 19:45 25.58508 -77.85905 39982 ft 436 kts 309°
2026-05-04 19:45 25.62993 -77.90431 39983 ft 436 kts 309°
2026-05-04 19:46 25.67449 -77.94931 39984 ft 436 kts 309°
2026-05-04 19:46 25.71934 -77.99467 39984 ft 436 kts 309°
2026-05-04 19:47 25.76416 -78.04004 40021 ft 436 kts 309°
2026-05-04 19:47 25.80909 -78.08560 39985 ft 438 kts 309°
2026-05-04 19:48 25.85379 -78.13093 39988 ft 438 kts 309°
2026-05-04 19:48 25.89874 -78.17657 39990 ft 438 kts 309°
2026-05-04 19:49 25.94367 -78.22225 39990 ft 438 kts 309°
2026-05-04 19:49 25.98862 -78.26799 39991 ft 438 kts 309°
2026-05-04 19:50 26.03318 -78.31339 39990 ft 438 kts 309°
2026-05-04 19:50 26.07809 -78.35920 39990 ft 438 kts 309°
2026-05-04 19:51 26.12310 -78.40517 40001 ft 440 kts 309°
2026-05-04 19:51 26.16811 -78.45118 39999 ft 440 kts 309°
2026-05-04 19:52 26.21318 -78.49729 39998 ft 440 kts 309°
2026-05-04 19:52 26.25790 -78.54310 40004 ft 440 kts 309°
2026-05-04 19:53 26.30289 -78.58924 40016 ft 440 kts 309°
2026-05-04 19:53 26.34787 -78.63542 40022 ft 440 kts 309°
2026-05-04 19:54 26.39282 -78.68162 40042 ft 440 kts 309°
2026-05-04 19:54 26.43749 -78.72760 40044 ft 441 kts 309°
2026-05-04 19:55 26.48251 -78.77397 40005 ft 440 kts 309°
2026-05-04 19:55 26.52754 -78.82040 40004 ft 440 kts 309°
2026-05-04 19:56 26.57248 -78.86680 40015 ft 440 kts 309°
2026-05-04 19:56 26.61713 -78.91294 40015 ft 440 kts 309°
2026-05-04 19:57 26.66212 -78.95949 40013 ft 440 kts 309°
2026-05-04 19:57 26.70701 -79.00599 40020 ft 440 kts 309°
2026-05-04 19:58 26.75196 -79.05261 40050 ft 440 kts 309°
2026-05-04 19:58 26.79655 -79.09891 40016 ft 440 kts 309°
2026-05-04 19:59 26.84139 -79.14551 40023 ft 440 kts 309°
2026-05-04 19:59 26.88628 -79.19222 40026 ft 440 kts 309°
2026-05-04 20:00 26.93112 -79.23893 40026 ft 440 kts 309°
2026-05-04 20:00 26.97563 -79.28535 40031 ft 440 kts 309°
2026-05-04 20:01 27.02042 -79.33212 40032 ft 440 kts 309°
2026-05-04 20:01 27.06522 -79.37895 40029 ft 440 kts 309°
2026-05-04 20:02 27.10995 -79.42575 40033 ft 440 kts 309°
2026-05-04 20:02 27.15439 -79.47232 40043 ft 440 kts 309°
2026-05-04 20:03 27.19915 -79.51927 40028 ft 440 kts 309°
2026-05-04 20:03 27.24393 -79.56630 40030 ft 440 kts 309°
2026-05-04 20:04 27.28865 -79.61331 40033 ft 440 kts 309°
2026-05-04 20:04 27.33307 -79.66007 40036 ft 440 kts 309°
2026-05-04 20:05 27.37777 -79.70716 40050 ft 440 kts 309°
2026-05-04 20:05 27.42249 -79.75435 40042 ft 440 kts 309°
2026-05-04 20:06 27.46715 -79.80152 40047 ft 441 kts 309°
2026-05-04 20:06 27.51169 -79.84864 40044 ft 442 kts 309°
2026-05-04 20:07 27.55653 -79.89610 40042 ft 442 kts 309°
2026-05-04 20:07 27.60140 -79.94365 40045 ft 442 kts 309°
2026-05-04 20:08 27.64622 -79.99121 40040 ft 443 kts 309°
2026-05-04 20:08 27.69072 -80.03849 40050 ft 443 kts 309°
2026-05-04 20:09 27.73559 -80.08623 40064 ft 444 kts 309°
2026-05-04 20:09 27.78060 -80.13416 40059 ft 444 kts 309°
2026-05-04 20:10 27.82556 -80.18209 40067 ft 445 kts 309°
2026-05-04 20:10 27.87032 -80.22987 40065 ft 445 kts 309°
2026-05-04 20:11 27.91535 -80.27799 40065 ft 445 kts 309°
2026-05-04 20:11 27.96035 -80.32614 40065 ft 445 kts 309°
2026-05-04 20:12 28.00532 -80.37433 40063 ft 445 kts 309°
2026-05-04 20:12 28.04962 -80.42175 40074 ft 432 kts 309°
2026-05-04 20:13 28.09254 -80.46770 40069 ft 420 kts 309°
2026-05-04 20:13 28.13490 -80.51334 40046 ft 421 kts 309°
2026-05-04 20:14 28.17730 -80.55911 40048 ft 421 kts 309°
2026-05-04 20:14 28.21868 -80.60373 40047 ft 420 kts 309°
2026-05-04 20:15 28.26108 -80.64946 40075 ft 420 kts 309°
2026-05-04 20:15 28.30339 -80.69515 40081 ft 420 kts 309°
2026-05-04 20:16 28.34572 -80.74093 40084 ft 420 kts 309°
2026-05-04 20:16 28.38776 -80.78645 40084 ft 420 kts 309°
2026-05-04 20:17 28.43006 -80.83229 40087 ft 420 kts 309°
2026-05-04 20:17 28.47237 -80.87820 40092 ft 420 kts 309°
2026-05-04 20:18 28.51463 -80.92411 40080 ft 420 kts 309°
2026-05-04 20:18 28.55649 -80.96961 40077 ft 418 kts 309°
2026-05-04 20:19 28.59846 -81.01532 40093 ft 418 kts 309°
2026-05-04 20:19 28.64047 -81.06112 40081 ft 418 kts 309°
2026-05-04 20:20 28.68242 -81.10693 40086 ft 418 kts 310°
2026-05-04 20:20 28.72410 -81.15246 40076 ft 418 kts 310°
2026-05-04 20:21 28.76604 -81.19834 40072 ft 418 kts 310°
2026-05-04 20:21 28.82762 -81.26581 40073 ft 418 kts 310°
2026-05-04 20:22 28.86880 -81.31100 40086 ft 418 kts 310°
2026-05-04 20:22 28.91050 -81.35681 40085 ft 419 kts 310°
2026-05-04 20:23 28.95272 -81.40278 40087 ft 420 kts 310°
2026-05-04 20:23 28.99508 -81.44868 40101 ft 419 kts 310°
2026-05-04 20:24 29.03733 -81.49452 40091 ft 419 kts 310°
2026-05-04 20:24 29.07922 -81.54004 40082 ft 419 kts 310°
2026-05-04 20:25 29.12143 -81.58595 40077 ft 419 kts 310°
2026-05-04 20:25 29.16360 -81.63189 40080 ft 419 kts 310°
2026-05-04 20:26 29.20573 -81.67784 40070 ft 419 kts 310°
2026-05-04 20:26 29.24790 -81.72388 40079 ft 419 kts 310°
2026-05-04 20:27 29.28974 -81.76961 40118 ft 419 kts 310°
2026-05-04 20:27 29.33184 -81.81568 40067 ft 417 kts 310°
2026-05-04 20:28 29.37375 -81.86161 40070 ft 417 kts 310°
2026-05-04 20:28 29.41538 -81.90729 40080 ft 417 kts 310°
2026-05-04 20:29 29.45727 -81.95330 40090 ft 417 kts 310°
2026-05-04 20:29 29.49916 -81.99936 40071 ft 417 kts 310°
2026-05-04 20:30 29.54101 -82.04544 40071 ft 417 kts 310°
2026-05-04 20:30 29.58287 -82.09158 40074 ft 417 kts 310°
2026-05-04 20:31 29.62434 -82.13735 40074 ft 415 kts 310°
2026-05-04 20:31 29.66591 -82.18328 40073 ft 414 kts 310°
2026-05-04 20:32 29.70744 -82.22923 40073 ft 414 kts 310°
2026-05-04 20:32 29.74892 -82.27519 40073 ft 414 kts 310°
2026-05-04 20:33 29.79011 -82.32086 40074 ft 414 kts 310°
2026-05-04 20:33 29.83158 -82.36691 40077 ft 414 kts 310°
2026-05-04 20:34 29.87301 -82.41298 40079 ft 414 kts 310°
2026-05-04 20:34 29.91434 -82.45897 40090 ft 412 kts 310°
2026-05-04 20:35 29.95545 -82.50478 40074 ft 410 kts 309°
2026-05-04 20:35 29.99622 -82.55028 40068 ft 410 kts 309°
2026-05-04 20:36 30.03720 -82.59606 40060 ft 410 kts 309°
2026-05-04 20:36 30.07820 -82.64193 40058 ft 410 kts 309°
2026-05-04 20:37 30.11915 -82.68778 40058 ft 410 kts 309°
2026-05-04 20:37 30.15989 -82.73345 40060 ft 410 kts 309°
2026-05-04 20:38 30.20080 -82.77939 40123 ft 410 kts 309°
2026-05-04 20:38 30.24139 -82.82498 40093 ft 407 kts 309°
2026-05-04 20:39 30.28185 -82.87051 40086 ft 405 kts 309°
2026-05-04 20:39 30.32199 -82.91575 40093 ft 406 kts 309°
2026-05-04 20:40 30.36243 -82.96138 40091 ft 406 kts 309°
2026-05-04 20:40 30.40282 -83.00700 40086 ft 406 kts 309°
2026-05-04 20:41 30.43637 -83.04493 40085 ft 406 kts 309°
2026-05-04 20:41 30.48331 -83.09807 40094 ft 406 kts 309°
2026-05-04 20:42 30.52357 -83.14371 40085 ft 406 kts 309°
2026-05-04 20:42 30.55697 -83.18161 40078 ft 405 kts 310°
2026-05-04 20:43 30.59714 -83.22723 40078 ft 403 kts 310°
2026-05-04 20:43 30.64376 -83.28028 40075 ft 403 kts 310°
2026-05-04 20:44 30.68378 -83.32586 40072 ft 403 kts 310°
2026-05-04 20:44 30.71706 -83.36382 40074 ft 403 kts 310°
2026-05-04 20:45 30.75706 -83.40949 40074 ft 403 kts 309°
2026-05-04 20:45 30.80356 -83.46265 40122 ft 403 kts 309°
2026-05-04 20:46 30.83698 -83.50090 40087 ft 402 kts 309°
2026-05-04 20:46 30.87652 -83.54620 40084 ft 401 kts 310°
2026-05-04 20:47 30.91613 -83.59164 40077 ft 399 kts 310°
2026-05-04 20:47 30.96205 -83.64440 40081 ft 398 kts 310°
2026-05-04 20:48 30.99509 -83.68241 40066 ft 399 kts 309°
2026-05-04 20:48 31.03455 -83.72785 40062 ft 399 kts 310°
2026-05-04 20:49 31.07374 -83.77303 40064 ft 399 kts 309°
2026-05-04 20:49 31.11314 -83.81852 40080 ft 398 kts 309°
2026-05-04 20:50 31.15243 -83.86392 40062 ft 397 kts 309°
2026-05-04 20:50 31.19167 -83.90933 40066 ft 397 kts 309°
2026-05-04 20:51 31.23079 -83.95466 40072 ft 395 kts 310°
2026-05-04 20:51 31.26943 -83.99948 40070 ft 394 kts 310°
2026-05-04 20:52 31.30828 -84.04461 40067 ft 394 kts 310°
2026-05-04 20:52 31.34715 -84.08982 40066 ft 394 kts 310°
2026-05-04 20:53 31.38600 -84.13506 40082 ft 394 kts 310°
2026-05-04 20:53 31.42457 -84.18003 40082 ft 393 kts 310°
2026-05-04 20:54 31.46358 -84.22556 40083 ft 393 kts 310°
2026-05-04 20:54 31.50228 -84.27079 40081 ft 393 kts 310°
2026-05-04 20:55 31.54072 -84.31576 40080 ft 392 kts 310°
2026-05-04 20:55 31.57925 -84.36089 40083 ft 391 kts 310°
2026-05-04 20:56 31.61762 -84.40592 40085 ft 390 kts 310°
2026-05-04 20:56 31.65602 -84.45101 40083 ft 390 kts 310°
2026-05-04 20:57 31.69415 -84.49585 40102 ft 391 kts 310°
2026-05-04 20:57 31.73254 -84.54106 40079 ft 392 kts 310°
2026-05-04 20:58 31.77103 -84.58643 40083 ft 392 kts 310°
2026-05-04 20:58 31.80946 -84.63179 40078 ft 392 kts 310°
2026-05-04 20:59 31.84790 -84.67723 40074 ft 391 kts 310°
2026-05-04 20:59 31.88591 -84.72218 40069 ft 389 kts 310°
2026-05-04 21:00 31.92396 -84.76725 40069 ft 388 kts 310°
2026-05-04 21:00 31.96198 -84.81237 40079 ft 388 kts 310°
2026-05-04 21:01 32.00002 -84.85757 40069 ft 389 kts 310°
2026-05-04 21:01 32.03778 -84.90246 39788 ft 387 kts 310°
2026-05-04 21:02 32.05671 -84.92500 39538 ft 387 kts 310°
2026-05-04 21:02 32.07558 -84.94748 39164 ft 386 kts 310°
2026-05-04 21:02 32.09455 -84.97010 38635 ft 387 kts 310°
2026-05-04 21:02 32.11343 -84.99259 38174 ft 385 kts 310°
2026-05-04 21:03 32.13222 -85.01500 37741 ft 383 kts 310°
2026-05-04 21:03 32.15087 -85.03726 37308 ft 381 kts 310°
2026-05-04 21:03 32.16942 -85.05942 36888 ft 378 kts 310°
2026-05-04 21:03 32.18785 -85.08145 36460 ft 377 kts 310°
2026-05-04 21:04 32.20623 -85.10344 36023 ft 376 kts 310°
2026-05-04 21:04 32.22457 -85.12540 35576 ft 375 kts 310°
2026-05-04 21:04 32.24286 -85.14732 35094 ft 375 kts 310°
2026-05-04 21:04 32.26121 -85.16931 34661 ft 376 kts 310°
2026-05-04 21:05 32.27964 -85.19143 34130 ft 378 kts 310°
2026-05-04 21:05 32.29794 -85.21340 33576 ft 382 kts 310°
2026-05-04 21:05 32.31665 -85.23588 33052 ft 386 kts 310°
2026-05-04 21:05 32.33555 -85.25860 32538 ft 390 kts 310°
2026-05-04 21:06 32.35467 -85.28159 32027 ft 394 kts 311°
2026-05-04 21:06 32.37398 -85.30482 31448 ft 398 kts 311°
2026-05-04 21:06 32.39348 -85.32829 30885 ft 401 kts 311°
2026-05-04 21:06 32.41302 -85.35180 30461 ft 399 kts 311°
2026-05-04 21:07 32.43245 -85.37520 30078 ft 398 kts 311°
2026-05-04 21:07 32.45158 -85.39826 29647 ft 397 kts 311°
2026-05-04 21:07 32.47090 -85.42157 29252 ft 396 kts 311°
2026-05-04 21:07 32.49011 -85.44476 28854 ft 393 kts 311°
2026-05-04 21:08 32.50913 -85.46774 28462 ft 390 kts 311°
2026-05-04 21:08 32.52805 -85.49062 28081 ft 387 kts 311°
2026-05-04 21:08 32.54687 -85.51339 27708 ft 386 kts 311°
2026-05-04 21:08 32.56567 -85.53616 27295 ft 386 kts 311°
2026-05-04 21:09 32.58441 -85.55887 26913 ft 385 kts 311°
2026-05-04 21:09 32.60311 -85.58153 26509 ft 383 kts 311°
2026-05-04 21:09 32.62169 -85.60408 26112 ft 382 kts 311°
2026-05-04 21:09 32.63995 -85.62624 25730 ft 380 kts 311°
2026-05-04 21:10 32.65839 -85.64864 25335 ft 378 kts 311°
2026-05-04 21:10 32.67671 -85.67090 24945 ft 377 kts 311°
2026-05-04 21:10 32.69498 -85.69313 24553 ft 375 kts 311°
2026-05-04 21:10 32.71316 -85.71524 24142 ft 373 kts 311°
2026-05-04 21:11 32.73125 -85.73727 23764 ft 372 kts 310°
2026-05-04 21:11 32.74925 -85.75918 23333 ft 370 kts 310°
2026-05-04 21:11 32.76719 -85.78106 22935 ft 368 kts 310°
2026-05-04 21:11 32.78480 -85.80255 22552 ft 367 kts 310°
2026-05-04 21:12 32.80261 -85.82429 22168 ft 367 kts 310°
2026-05-04 21:12 32.82037 -85.84599 21790 ft 366 kts 310°
2026-05-04 21:12 32.83811 -85.86767 21413 ft 365 kts 310°
2026-05-04 21:12 32.85572 -85.88919 21020 ft 361 kts 310°
2026-05-04 21:13 32.87327 -85.91067 20652 ft 363 kts 310°
2026-05-04 21:13 32.89089 -85.93227 20273 ft 366 kts 310°
2026-05-04 21:13 32.90836 -85.95367 19888 ft 364 kts 310°
2026-05-04 21:13 32.92594 -85.97521 19515 ft 362 kts 310°
2026-05-04 21:14 32.94340 -85.99661 19131 ft 360 kts 310°
2026-05-04 21:14 32.96080 -86.01797 18761 ft 359 kts 310°
2026-05-04 21:14 32.97820 -86.03934 18385 ft 359 kts 310°
2026-05-04 21:14 32.99557 -86.06068 17974 ft 358 kts 310°
2026-05-04 21:15 33.01283 -86.08190 17594 ft 356 kts 310°
2026-05-04 21:15 33.03004 -86.10308 17162 ft 355 kts 311°
2026-05-04 21:15 33.04694 -86.12388 16774 ft 353 kts 311°
2026-05-04 21:15 33.06391 -86.14478 16405 ft 349 kts 311°
2026-05-04 21:16 33.08073 -86.16550 16033 ft 347 kts 311°
2026-05-04 21:16 33.09759 -86.18631 15661 ft 350 kts 311°
2026-05-04 21:16 33.11448 -86.20716 15288 ft 349 kts 311°
2026-05-04 21:16 33.13127 -86.22789 14923 ft 346 kts 311°
2026-05-04 21:17 33.14742 -86.24783 14557 ft 344 kts 311°
2026-05-04 21:17 33.16280 -86.26685 14226 ft 342 kts 311°
2026-05-04 21:17 33.17943 -86.28740 13848 ft 340 kts 311°
2026-05-04 21:17 33.19584 -86.30771 13454 ft 339 kts 311°
2026-05-04 21:18 33.21198 -86.32763 13086 ft 339 kts 313°
2026-05-04 21:18 33.23144 -86.34461 12743 ft 357 kts 332°
2026-05-04 21:18 33.25529 -86.35395 12402 ft 364 kts 344°
2026-05-04 21:18 33.28009 -86.36044 12038 ft 366 kts 346°
2026-05-04 21:19 33.30512 -86.36671 11441 ft 367 kts 346°
2026-05-04 21:19 33.32991 -86.37289 11057 ft 362 kts 346°
2026-05-04 21:19 33.35442 -86.37900 10658 ft 357 kts 346°
2026-05-04 21:19 33.37631 -86.38444 10488 ft 347 kts 346°
2026-05-04 21:20 33.39930 -86.39011 10391 ft 336 kts 346°
2026-05-04 21:20 33.42177 -86.39560 10246 ft 324 kts 346°
2026-05-04 21:20 33.44351 -86.40092 10097 ft 312 kts 346°
2026-05-04 21:20 33.46436 -86.40595 9684 ft 302 kts 346°
2026-05-04 21:21 33.48481 -86.41089 9065 ft 298 kts 346°
2026-05-04 21:21 33.50506 -86.41586 8444 ft 296 kts 346°
2026-05-04 21:21 33.52510 -86.42088 7851 ft 293 kts 346°
2026-05-04 21:21 33.54462 -86.42586 7571 ft 279 kts 346°
2026-05-04 21:22 33.56294 -86.43102 7332 ft 264 kts 341°
2026-05-04 21:22 33.57969 -86.43917 6943 ft 256 kts 329°
2026-05-04 21:22 33.59501 -86.44974 6543 ft 252 kts 326°
2026-05-04 21:22 33.60975 -86.46052 6061 ft 251 kts 326°
2026-05-04 21:23 33.62463 -86.47150 5586 ft 251 kts 326°
2026-05-04 21:23 33.63937 -86.48242 5145 ft 248 kts 326°
2026-05-04 21:23 33.65391 -86.49333 4714 ft 245 kts 325°
2026-05-04 21:23 33.66838 -86.50416 4241 ft 244 kts 325°
2026-05-04 21:24 33.68033 -86.51791 3939 ft 237 kts 292°
2026-05-04 21:24 33.68243 -86.53671 3953 ft 227 kts 257°
2026-05-04 21:24 33.67798 -86.55480 3992 ft 224 kts 242°
2026-05-04 21:24 33.67050 -86.56972 4015 ft 199 kts 232°
2026-05-04 21:25 33.66295 -86.58260 3897 ft 182 kts 232°
2026-05-04 21:25 33.65585 -86.59505 3613 ft 181 kts 234°
2026-05-04 21:25 33.64896 -86.60722 3337 ft 170 kts 234°
2026-05-04 21:25 33.64257 -86.61843 3105 ft 156 kts 233°
2026-05-04 21:26 33.63662 -86.62885 2898 ft 147 kts 232°
2026-05-04 21:26 33.63084 -86.63891 2712 ft 147 kts 232°
2026-05-04 21:26 33.62504 -86.64901 2522 ft 147 kts 233°
2026-05-04 21:26 33.61922 -86.65914 2337 ft 147 kts 234°
2026-05-04 21:27 33.61354 -86.66905 2136 ft 145 kts 233°
2026-05-04 21:27 33.60782 -86.67904 1930 ft 146 kts 236°
2026-05-04 21:27 33.60208 -86.68907 1753 ft 146 kts 232°
2026-05-04 21:27 33.59636 -86.69905 1548 ft 144 kts 234°
2026-05-04 21:28 33.59068 -86.70897 1359 ft 144 kts 231°
2026-05-04 21:28 33.58500 -86.71889 1144 ft 146 kts 229°
2026-05-04 21:28 33.57928 -86.72889 956 ft 145 kts 231°
2026-05-04 21:28 33.57368 -86.73864 765 ft 139 kts 229°
2026-05-04 21:29 33.56828 -86.74795 648 ft 128 kts 232°
2026-05-04 21:29 33.56529 -86.75307 643 ft 15 kts 237°
2026-05-04 21:29 33.56474 -86.75413 639 ft 16 kts 238°
2026-05-04 21:29 33.56414 -86.75519 640 ft 15 kts 234°
2026-05-04 21:30 33.56345 -86.75562 635 ft 9 kts 176°
2026-05-04 21:30 33.56323 -86.75509 642 ft 10 kts 92°
2026-05-04 21:30 33.56349 -86.75407 642 ft 15 kts 67°
2026-05-04 21:30 33.56396 -86.75281 636 ft 19 kts 66°
2026-05-04 21:31 33.56453 -86.75070 635 ft 2 kts 122°